Location: Albany
(35.0000°S, 118.0000°E)
Time: 00:57:31
(UTC-04:00)

Amateur Radio Satellites - All Passes

Search period start: 24 August 2016 00:27
Search period end: 25 August 2016 00:27
Location: Albany, 35.0000°S, 118.0000°E

Satellite Date Start Highest point End Downlink Frequencies (MHz)
Time Altitude Azimuth
CUSAT 1 24 Aug 00:27:35 00:34:39 34° 255° (WSW) 00:41:16 437.405
UKube-1 24 Aug 00:29:14 00:32:47 25° 276° (W) 00:36:23 .
JAS-2 24 Aug 00:32:53 00:39:14 83° 256° (WSW) 00:44:48 435.910
TISAT 1 24 Aug 00:34:39 00:38:49 69° 104° (ESE) 00:43:02 437.305
ITUPSAT 1 24 Aug 00:38:38 00:41:10 14° 116° (ESE) 00:43:44 437.325
DANDE 24 Aug 00:39:20 00:47:17 59° 258° (WSW) 00:55:35 436.750
QB50P2 24 Aug 00:39:32 00:42:42 20° 249° (WSW) 00:45:50 145.880/145.840
RS-15 24 Aug 00:40:24 00:51:28 50° 71° (ENE) 01:02:02 29.354- 29.394
POLYITAN 1 24 Aug 00:42:04 00:45:13 20° 249° (WSW) 00:48:22 437.675
DUCHIFAT 1 24 Aug 00:43:17 00:46:34 22° 249° (WSW) 00:49:50 145.980
SO-50 24 Aug 00:47:57 00:51:53 31° 233° (SW) 00:55:52 436.795
NANOSAT C BR1 24 Aug 00:55:32 00:58:02 15° 247° (WSW) 01:00:31 145.865
O/OREOS (USA 219) 24 Aug 00:57:05 01:01:15 36° 284° (WNW) 01:05:22 437.305
Oscar 19 24 Aug 01:05:09 01:10:00 39° 82° (E) 01:14:48 437.125/150
SWISSCUBE 24 Aug 01:12:00 01:16:24 36° 109° (ESE) 01:20:50 437.505
GONETS M04 24 Aug 01:13:02 01:18:19 18° 260° (W) 01:23:36
Cosmos 2499 24 Aug 01:26:52 01:32:19 18° 259° (W) 01:37:45 435.465 / 435.565
BEESAT 24 Aug 01:29:22 01:34:00 50° 107° (ESE) 01:38:41 436.000
Gurwin Techsat 1B 24 Aug 01:40:07 01:45:09 39° 82° (E) 01:50:07 435.225
ITAMSAT 1 24 Aug 02:10:18 02:14:18 22° 85° (E) 02:18:16 435.822/435.867
ITUPSAT 1 24 Aug 02:13:46 02:18:28 55° 281° (W) 02:23:17 437.325
JAS-2 24 Aug 02:21:51 02:23:00 11° 236° (SW) 02:24:08 435.910
MOZHAYETS 4 24 Aug 02:22:30 02:26:11 24° 111° (ESE) 02:29:55
AO-7 24 Aug 02:22:57 02:28:10 18° 87° (E) 02:33:21 29.400- 29.500
DANDE 24 Aug 02:30:15 02:31:41 10° 241° (WSW) 02:33:07 436.750
Oscar 19 24 Aug 02:45:09 02:49:00 21° 247° (WSW) 02:52:50 437.125/150
KKS-1 24 Aug 02:47:55 02:51:57 35° 108° (ESE) 02:56:02 437.445
SWISSCUBE 24 Aug 02:50:45 02:54:14 20° 275° (W) 02:57:47 437.505
PHONESAT 2.4 24 Aug 02:51:49 02:54:52 69° 27° (NNE) 02:57:56 2401.200-2431.200
RS-15 24 Aug 02:52:53 03:03:51 46° 231° (SW) 03:14:25 29.354- 29.394
BEESAT 24 Aug 03:09:27 03:12:01 14° 273° (W) 03:14:36 436.000
Gurwin Techsat 1B 24 Aug 03:20:39 03:24:47 23° 247° (WSW) 03:28:55 435.225
CUBESAT XI-V 24 Aug 03:31:48 03:34:41 16° 114° (ESE) 03:37:34 437.345
STARS 24 Aug 03:35:23 03:39:41 58° 106° (ESE) 03:44:02 437.465
ITAMSAT 1 24 Aug 03:48:56 03:53:51 39° 251° (WSW) 03:58:42 435.822/435.867
MOZHAYETS 4 24 Aug 03:59:09 04:03:10 29° 276° (W) 04:07:15
HORYU 2 24 Aug 04:06:01 04:08:22 14° 87° (E) 04:10:44 437.375
AO-7 24 Aug 04:13:12 04:21:39 82° 250° (WSW) 04:30:03 29.400- 29.500
KKS-1 24 Aug 04:25:36 04:28:35 18° 274° (W) 04:31:37 437.445
PHONESAT 2.4 24 Aug 04:28:33 04:31:24 33° 190° (S) 04:34:15 2401.200-2431.200
AO-85 24 Aug 04:46:35 04:49:14 18° 71° (ENE) 04:51:57 145.980
Cosmos 2491 24 Aug 04:48:46 04:57:11 47° 103° (ESE) 05:05:27 435.465 / 435.565
CUBESAT XI-V 24 Aug 05:07:05 05:11:38 46° 279° (W) 05:16:13 437.345
RS-15 24 Aug 05:14:32 05:20:10 15° 201° (SSW) 05:25:44 29.354- 29.394
STARS 24 Aug 05:16:03 05:16:21 10° 272° (W) 05:16:40 437.465
HORYU 2 24 Aug 05:40:45 05:45:07 46° 253° (WSW) 05:49:26 437.375
Cubesat XI-IV 24 Aug 05:45:10 05:49:55 30° 83° (E) 05:54:36 437.490
GOMX 1 24 Aug 05:55:28 05:59:20 32° 82° (E) 06:03:19 467.674
BRITE-PL 24 Aug 05:58:05 06:02:19 88° 257° (WSW) 06:06:33 437.365/2234.400
CUTE-I 24 Aug 05:58:08 06:03:15 41° 81° (E) 06:08:18 437.470
YUBILEINY 24 Aug 05:59:33 06:08:06 64° 89° (E) 06:16:43 435.215
NOAA 18 24 Aug 06:02:37 06:07:51 40° 81° (E) 06:13:03 137.9125
PHONESAT 2.4 24 Aug 06:05:25 06:08:13 30° 173° (S) 06:11:00 2401.200-2431.200
AO-7 24 Aug 06:08:23 06:13:09 17° 233° (SW) 06:17:54 29.400- 29.500
NOAA 15 24 Aug 06:13:09 06:18:29 75° 77° (ENE) 06:23:45 137.62
STRAND 1 24 Aug 06:22:45 06:27:47 56° 107° (ESE) 06:32:53 437.568
DOVE 4 24 Aug 06:22:59 06:26:51 29° 83° (E) 06:30:51 437.250
AO-85 24 Aug 06:25:49 06:29:20 30° 234° (SW) 06:33:05 145.980
LilacSat-2 24 Aug 06:37:41 06:41:35 59° 256° (WSW) 06:45:26 437.200
Cosmos 2491 24 Aug 06:46:07 06:53:37 33° 265° (W) 07:01:05 435.465 / 435.565
HO-68 24 Aug 06:52:17 06:57:16 20° 87° (E) 07:02:11 435.675
Cosmos 2504 24 Aug 06:55:01 07:02:02 49° 91° (E) 07:09:35 435.465 / 435.565
Cubesat XI-IV 24 Aug 07:25:10 07:29:52 30° 248° (WSW) 07:34:31 437.490
CINEMA 3 24 Aug 07:33:14 07:37:46 48° 81° (E) 07:42:26 145.822/145.860
GOMX 1 24 Aug 07:34:21 07:37:12 18° 249° (WSW) 07:40:07 467.674
RS-15 24 Aug 07:34:32 07:39:39 14° 161° (SSE) 07:44:45 29.354- 29.394
CUTE-I 24 Aug 07:38:49 07:42:59 23° 246° (WSW) 07:47:06 437.470
SEEDS 24 Aug 07:39:36 07:43:16 27° 84° (E) 07:46:52 437.485
PHONESAT 2.4 24 Aug 07:41:44 07:44:50 87° 164° (SSE) 07:47:55 2401.200-2431.200
SO-50 24 Aug 07:43:20 07:44:59 12° 135° (SE) 07:46:39 436.795
NOAA 18 24 Aug 07:43:48 07:48:14 25° 246° (WSW) 07:52:39 137.9125
CANX-2 24 Aug 07:52:06 07:56:27 68° 78° (ENE) 08:00:42 2200.000
NOAA 15 24 Aug 07:55:28 07:57:33 12° 242° (WSW) 07:59:37 137.62
YUBILEINY 24 Aug 07:58:46 08:05:28 24° 250° (WSW) 08:12:13 435.215
CUTE 1.7 + AOD 2 24 Aug 07:59:03 08:03:24 71° 78° (ENE) 08:07:39 437.475
ISS 24 Aug 07:59:17 08:00:32 12° 54° (NE) 08:01:47 145.825
DOVE 4 24 Aug 08:01:00 08:04:23 22° 250° (WSW) 08:07:53 437.250
STRAND 1 24 Aug 08:04:32 08:07:16 14° 272° (W) 08:10:01 437.568
AIST 1 24 Aug 08:13:32 08:16:07 15° 93° (E) 08:18:41
PRISM 24 Aug 08:14:58 08:19:10 81° 284° (WNW) 08:23:24 437.425
CUBEBUG 2 24 Aug 08:18:54 08:23:23 42° 81° (E) 08:27:53 437.445
AAUSAT CUBESAT 2 24 Aug 08:22:19 08:26:23 46° 81° (E) 08:30:23 437.432
UWE-3 24 Aug 08:25:28 08:29:42 32° 83° (E) 08:33:55 435.000/436.395/437.385
COMPASS 1 24 Aug 08:26:07 08:30:22 69° 79° (E) 08:34:31 437.405
Oscar 11 24 Aug 08:29:21 08:32:42 21° 85° (E) 08:35:59 145.826/435.025
ANTELSAT 24 Aug 08:29:33 08:31:10 12° 115° (ESE) 08:32:47 437.575/2403.000
FUNcube-1 24 Aug 08:30:47 08:34:21 22° 85° (E) 08:37:54 145.935
HO-68 24 Aug 08:38:14 08:45:25 67° 251° (WSW) 08:52:33 435.675
ZACube-1 24 Aug 08:49:19 08:53:39 38° 82° (E) 08:57:56 437.345
Cosmos 2504 24 Aug 08:49:34 08:55:42 27° 251° (WSW) 09:02:14 435.465 / 435.565
TIGRISAT 24 Aug 08:59:31 09:03:02 25° 110° (ESE) 09:06:38 435.000
DELFI C3 24 Aug 09:01:29 09:04:18 18° 86° (E) 09:07:04 145.870
CINEMA 3 24 Aug 09:11:48 09:14:31 15° 248° (WSW) 09:17:16 145.822/145.860
SEEDS 24 Aug 09:15:32 09:18:46 21° 249° (WSW) 09:21:57 437.485
PHONESAT 2.4 24 Aug 09:19:08 09:20:54 14° 323° (NW) 09:22:39 2401.200-2431.200
BEESAT 3 24 Aug 09:19:22 09:22:48 29° 67° (ENE) 09:26:14 437.485
SO-50 24 Aug 09:21:18 09:26:04 89° 297° (WNW) 09:30:54 436.795
UNISAT 6 24 Aug 09:25:57 09:30:10 54° 106° (ESE) 09:34:31 437.425
CUSAT 1 24 Aug 09:28:08 09:29:31 11° 116° (ESE) 09:30:47 437.405
ISS 24 Aug 09:33:21 09:36:35 52° 220° (SW) 09:39:51 145.825
RS-15 24 Aug 09:45:54 09:56:08 43° 130° (SE) 10:06:23 29.354- 29.394
AIST 1 24 Aug 09:49:22 09:53:21 34° 259° (W) 09:57:22
QB50P2 24 Aug 09:53:53 09:56:20 15° 113° (ESE) 09:58:50 145.880/145.840
POLYITAN 1 24 Aug 09:56:23 09:58:52 15° 113° (ESE) 10:01:23 437.675
CUBEBUG 2 24 Aug 09:56:33 09:59:37 18° 248° (WSW) 10:02:45 437.445
DUCHIFAT 1 24 Aug 09:57:31 09:59:36 14° 114° (ESE) 10:01:41 145.980
AAUSAT CUBESAT 2 24 Aug 09:59:37 10:01:24 12° 246° (WSW) 10:03:11 437.432
UWE-3 24 Aug 10:02:22 10:05:55 22° 249° (WSW) 10:09:28 435.000/436.395/437.385
ANTELSAT 24 Aug 10:03:06 10:07:19 54° 280° (W) 10:11:41 437.575/2403.000
Oscar 11 24 Aug 10:04:59 10:08:47 29° 251° (WSW) 10:12:32 145.826/435.025
FUNcube-1 24 Aug 10:06:30 10:10:34 31° 251° (WSW) 10:14:36 145.935
NANOSAT C BR1 24 Aug 10:08:13 10:11:15 20° 111° (ESE) 10:14:20 145.865
HUMSAT D 24 Aug 10:10:59 10:15:22 63° 79° (E) 10:19:38 437.325/437.525
GONETS M04 24 Aug 10:18:11 10:23:17 17° 101° (E) 10:28:23
ZACube-1 24 Aug 10:26:26 10:29:36 19° 248° (WSW) 10:32:46 437.345
BEESAT 2 24 Aug 10:29:57 10:33:56 79° 243° (WSW) 10:37:57 435.950
HO-68 24 Aug 10:30:21 10:31:46 11° 234° (SW) 10:33:11 435.675
DELFI C3 24 Aug 10:35:41 10:39:07 27° 251° (WSW) 10:42:29 145.870
TIGRISAT 24 Aug 10:36:07 10:39:37 24° 275° (W) 10:43:11 435.000
JAS-2 24 Aug 10:39:11 10:46:10 36° 113° (ESE) 10:53:02 435.910
QB50P1 24 Aug 10:48:33 10:52:43 64° 104° (ESE) 10:56:57 145.935-145.965
PCSat 24 Aug 10:51:24 10:55:05 19° 75° (ENE) 10:58:47 145.827
AUBIESAT-1 24 Aug 10:56:53 11:00:37 41° 76° (ENE) 11:04:34 437.475
BEESAT 3 24 Aug 10:57:30 11:00:28 20° 232° (SW) 11:03:26 437.485
POPSAT HIP 1 24 Aug 10:58:07 11:02:20 83° 103° (ESE) 11:06:37 437.405
M-CUBED/EXP-1 PRIME 24 Aug 10:58:59 11:02:48 55° 74° (ENE) 11:06:52 437.505
50 SAT 24 Aug 10:59:28 11:01:21 13° 87° (E) 11:03:13 437.505
VELOX 1 24 Aug 11:01:05 11:03:56 16° 86° (E) 11:06:44 145.980
UNISAT 6 24 Aug 11:06:17 11:07:13 11° 271° (W) 11:08:09 437.425
BUGSAT 1 24 Aug 11:07:23 11:11:05 35° 107° (ESE) 11:14:49 437.445
JUGNU 24 Aug 11:07:39 11:09:24 11° 15° (NNE) 11:11:09 437.505
CUSAT 1 24 Aug 11:08:25 11:11:53 28° 268° (W) 11:14:42 437.405
CUBEBUG 1 24 Aug 11:12:49 11:16:35 28° 83° (E) 11:20:20 437.445
ESTCUBE 1 24 Aug 11:23:38 11:28:10 62° 79° (E) 11:32:37 437.505/2401.250
DANDE 24 Aug 11:25:49 11:31:29 74° 276° (W) 11:35:36 436.750
QB50P2 24 Aug 11:27:50 11:31:47 38° 278° (W) 11:35:47 145.880/145.840
POLYITAN 1 24 Aug 11:30:23 11:34:18 37° 278° (W) 11:38:18 437.675
DUCHIFAT 1 24 Aug 11:30:52 11:34:51 43° 279° (W) 11:38:54 145.980
DX 1 24 Aug 11:31:14 11:34:48 24° 84° (E) 11:38:20 434.975-435.025
NANOSAT C BR1 24 Aug 11:43:07 11:46:46 29° 277° (W) 11:50:28 145.865
AISAT 24 Aug 11:48:18 11:52:44 64° 78° (ENE) 11:57:07 437.250
SPROUT 24 Aug 11:48:47 11:52:34 29° 83° (E) 11:56:20 437.525
HUMSAT D 24 Aug 11:49:53 11:50:22 10° 245° (WSW) 11:50:50 437.325/437.525
RS-15 24 Aug 11:58:14 12:08:32 51° 290° (WNW) 12:19:03 29.354- 29.394
Cosmos 2499 24 Aug 12:03:30 12:10:56 72° 87° (E) 12:19:05 435.465 / 435.565
AIST 2 24 Aug 12:08:16 12:12:12 42° 66° (ENE) 12:16:10 435.215
GONETS M04 24 Aug 12:10:05 12:18:56 83° 263° (W) 12:27:48
UKube-1 24 Aug 12:18:36 12:22:58 69° 77° (ENE) 12:27:17 .
Oscar 19 24 Aug 12:18:38 12:23:29 42° 109° (ESE) 12:28:22 437.125/150
TISAT 1 24 Aug 12:23:24 12:25:37 14° 87° (E) 12:27:51 437.305
JAS-2 24 Aug 12:23:26 12:30:52 45° 278° (W) 12:38:17 435.910
50 SAT 24 Aug 12:31:43 12:35:00 30° 252° (WSW) 12:38:12 437.505
AUBIESAT-1 24 Aug 12:32:45 12:34:47 14° 244° (WSW) 12:36:53 437.475
PCSat 24 Aug 12:32:48 12:38:02 49° 240° (WSW) 12:43:19 145.827
M-CUBED/EXP-1 PRIME 24 Aug 12:36:22 12:36:58 10° 243° (WSW) 12:37:32 437.505
VELOX 1 24 Aug 12:36:23 12:40:29 37° 252° (WSW) 12:44:32 145.980
BUGSAT 1 24 Aug 12:44:23 12:46:34 14° 273° (W) 12:48:45 437.445
CUBEBUG 1 24 Aug 12:49:22 12:52:41 21° 249° (WSW) 12:55:59 437.445
JUGNU 24 Aug 12:53:51 12:57:39 17° 5° (N) 13:01:28 437.505
Gurwin Techsat 1B 24 Aug 12:57:49 13:02:53 45° 109° (ESE) 13:07:59 435.225
ESTCUBE 1 24 Aug 13:03:01 13:04:22 11° 244° (WSW) 13:05:43 437.505/2401.250
DX 1 24 Aug 13:07:17 13:10:52 25° 249° (WSW) 13:14:25 434.975-435.025
SWISSCUBE 24 Aug 13:17:36 13:19:23 12° 88° (E) 13:21:09 437.505
AO-7 24 Aug 13:19:00 13:24:40 21° 124° (SE) 13:30:20 29.400- 29.500
AO-85 24 Aug 13:20:41 13:22:32 12° 135° (SE) 13:24:25 145.980
SPROUT 24 Aug 13:25:04 13:28:18 21° 249° (WSW) 13:31:30 437.525
ITAMSAT 1 24 Aug 13:25:05 13:29:14 25° 113° (ESE) 13:33:26 435.822/435.867
O/OREOS (USA 219) 24 Aug 13:26:35 13:30:49 36° 76° (ENE) 13:35:04 437.305
AISAT 24 Aug 13:27:48 13:28:36 10° 244° (WSW) 13:29:24 437.250
BEESAT 24 Aug 13:34:00 13:37:06 17° 86° (E) 13:40:10 436.000
AIST 2 24 Aug 13:48:07 13:50:51 17° 230° (SW) 13:53:36 435.215
TISAT 1 24 Aug 13:57:24 14:01:24 40° 253° (WSW) 14:05:24 437.305
Oscar 19 24 Aug 13:59:11 14:02:55 20° 274° (W) 14:06:40 437.125/150
Cosmos 2499 24 Aug 13:59:48 14:04:57 19° 247° (WSW) 14:10:23 435.465 / 435.565
GONETS M04 24 Aug 14:12:53 14:17:04 14° 244° (WSW) 14:21:18
ITUPSAT 1 24 Aug 14:17:32 14:22:17 49° 80° (E) 14:26:56 437.325
SRMSAT 24 Aug 14:23:55 14:27:21 16° 9° (N) 14:30:47 437.500
Gurwin Techsat 1B 24 Aug 14:39:16 14:42:59 19° 274° (W) 14:46:45 435.225
JUGNU 24 Aug 14:42:11 14:45:57 17° 354° (N) 14:49:44 437.505
SWISSCUBE 24 Aug 14:52:43 14:57:30 60° 254° (WSW) 15:02:14 437.505
AO-85 24 Aug 14:58:32 15:03:39 82° 120° (ESE) 15:09:02 145.980
ITAMSAT 1 24 Aug 15:03:43 15:08:28 35° 278° (W) 15:13:17 435.822/435.867
O/OREOS (USA 219) 24 Aug 15:07:01 15:10:18 19° 241° (WSW) 15:13:37 437.305
AO-7 24 Aug 15:08:07 15:16:26 82° 287° (WNW) 15:24:51 29.400- 29.500
BEESAT 24 Aug 15:10:26 15:15:02 43° 252° (WSW) 15:19:34 436.000
STARS 24 Aug 15:29:40 15:31:57 14° 87° (E) 15:34:14 437.465
MOZHAYETS 4 24 Aug 15:56:41 16:01:26 85° 77° (ENE) 16:06:04
ITUPSAT 1 24 Aug 15:56:46 15:59:39 16° 245° (WSW) 16:02:31 437.325
ISS 24 Aug 16:03:37 16:06:45 37° 143° (SE) 16:09:51 145.825
SRMSAT 24 Aug 16:11:47 16:15:49 19° 359° (N) 16:19:51 437.500
YUBILEINY 24 Aug 16:14:36 16:21:45 27° 109° (ESE) 16:28:51 435.215
KKS-1 24 Aug 16:18:00 16:22:30 72° 255° (WSW) 16:26:58 437.445
JUGNU 24 Aug 16:32:55 16:34:13 11° 345° (NNW) 16:35:31 437.505
HORYU 2 24 Aug 16:34:56 16:39:23 76° 282° (WNW) 16:43:55 437.375
AO-85 24 Aug 16:42:11 16:43:33 11° 286° (WNW) 16:44:57 145.980
Cosmos 2504 24 Aug 16:52:26 16:57:34 16° 114° (ESE) 17:02:42 435.465 / 435.565
GOMX 1 24 Aug 17:00:38 17:04:33 26° 108° (ESE) 17:08:17 467.674
Cubesat XI-IV 24 Aug 17:03:50 17:08:41 36° 110° (ESE) 17:13:36 437.490
STARS 24 Aug 17:04:14 17:08:29 44° 253° (WSW) 17:12:43 437.465
BRITE-PL 24 Aug 17:04:42 17:09:56 75° 103° (ESE) 17:14:50 437.365/2234.400
CUBESAT XI-V 24 Aug 17:06:49 17:11:26 56° 80° (E) 17:15:58 437.345
AO-7 24 Aug 17:06:54 17:10:12 13° 271° (W) 17:13:31 29.400- 29.500
LilacSat-2 24 Aug 17:16:14 17:19:48 38° 106° (ESE) 17:23:26 437.200
CUTE-I 24 Aug 17:16:34 17:21:42 48° 108° (ESE) 17:26:54 437.470
HO-68 24 Aug 17:21:59 17:23:17 11° 126° (SE) 17:24:35 435.675
NOAA 18 24 Aug 17:25:33 17:30:52 55° 108° (ESE) 17:36:17 137.9125
DOVE 4 24 Aug 17:26:14 17:29:23 20° 110° (ESE) 17:32:28 437.250
NOAA 15 24 Aug 17:29:43 17:35:03 85° 100° (E) 17:40:27 137.62
ISS 24 Aug 17:40:43 17:42:57 17° 308° (NW) 17:45:10 145.825
Cosmos 2491 24 Aug 17:45:08 17:53:46 61° 89° (E) 18:02:26 435.465 / 435.565
SRMSAT 24 Aug 18:01:12 18:04:16 14° 349° (N) 18:07:20 437.500
YUBILEINY 24 Aug 18:10:22 18:18:59 59° 271° (W) 18:27:35 435.215
SEEDS 24 Aug 18:29:26 18:31:32 13° 113° (ESE) 18:33:40 437.485
CINEMA 3 24 Aug 18:32:28 18:35:57 26° 109° (ESE) 18:39:30 145.822/145.860
STRAND 1 24 Aug 18:37:14 18:41:30 25° 84° (E) 18:45:44 437.568
GOMX 1 24 Aug 18:38:39 18:42:33 25° 277° (W) 18:46:17 467.674
CANX-2 24 Aug 18:41:35 18:45:23 31° 108° (ESE) 18:49:15 2200.000
Cosmos 2504 24 Aug 18:43:09 18:52:05 87° 98° (E) 19:01:00 435.465 / 435.565
Cubesat XI-IV 24 Aug 18:44:27 18:48:46 25° 275° (W) 18:53:08 437.490
CUBESAT XI-V 24 Aug 18:46:15 18:48:15 13° 245° (WSW) 18:50:16 437.345
CUTE 1.7 + AOD 2 24 Aug 18:48:23 18:52:13 32° 108° (ESE) 18:56:07 437.475
BEESAT 2 24 Aug 18:51:34 18:54:40 21° 128° (SE) 18:57:44 435.950
LilacSat-2 24 Aug 18:53:01 18:54:16 11° 272° (W) 18:55:31 437.200
CUTE-I 24 Aug 18:58:22 19:01:56 18° 274° (W) 19:05:34 437.470
HO-68 24 Aug 19:02:33 19:09:37 67° 109° (ESE) 19:16:46 435.675
DOVE 4 24 Aug 19:03:02 19:06:54 29° 277° (W) 19:10:40 437.250
NOAA 18 24 Aug 19:08:29 19:11:49 16° 273° (W) 19:15:13 137.9125
AAUSAT CUBESAT 2 24 Aug 19:09:46 19:12:56 21° 111° (ESE) 19:16:07 437.432
COMPASS 1 24 Aug 19:13:37 19:17:18 29° 108° (ESE) 19:21:02 437.405
CUBEBUG 2 24 Aug 19:14:37 19:17:50 22° 111° (ESE) 19:21:07 437.445
BEESAT 3 24 Aug 19:16:24 19:20:21 84° 118° (ESE) 19:24:14 437.485
UWE-3 24 Aug 19:20:25 19:23:07 17° 113° (ESE) 19:25:53 435.000/436.395/437.385
Oscar 11 24 Aug 19:22:44 19:24:12 11° 115° (ESE) 19:25:40 145.826/435.025
FUNcube-1 24 Aug 19:25:29 19:26:32 11° 115° (ESE) 19:27:36 145.935
ZACube-1 24 Aug 19:42:45 19:45:46 19° 112° (ESE) 19:48:51 437.345
Cosmos 2491 24 Aug 19:44:01 19:51:04 26° 251° (WSW) 19:58:12 435.465 / 435.565
AIST 1 24 Aug 19:59:29 20:03:31 38° 101° (E) 20:07:31
PRISM 24 Aug 20:00:56 20:03:40 17° 85° (E) 20:06:23 437.425
SEEDS 24 Aug 20:02:41 20:06:46 45° 279° (W) 20:10:57 437.485
CINEMA 3 24 Aug 20:10:01 20:13:04 20° 275° (W) 20:16:11 145.822/145.860
STRAND 1 24 Aug 20:16:01 20:20:39 33° 250° (WSW) 20:25:14 437.568
CANX-2 24 Aug 20:18:13 20:21:16 19° 274° (W) 20:24:19 2200.000
CUTE 1.7 + AOD 2 24 Aug 20:25:08 20:28:06 18° 274° (W) 20:31:05 437.475
BEESAT 2 24 Aug 20:29:06 20:32:27 27° 292° (WNW) 20:35:46 435.950
AIST 2 24 Aug 20:34:17 20:35:57 12° 133° (SE) 20:37:37 435.215
Cosmos 2504 24 Aug 20:39:12 20:44:15 17° 259° (W) 20:49:22 435.465 / 435.565
AAUSAT CUBESAT 2 24 Aug 20:44:37 20:48:13 27° 276° (W) 20:51:52 437.432
COMPASS 1 24 Aug 20:49:48 20:52:50 19° 274° (W) 20:55:55 437.405
CUBEBUG 2 24 Aug 20:50:48 20:54:18 25° 276° (W) 20:57:53 437.445
HO-68 24 Aug 20:52:55 20:57:47 19° 273° (W) 21:02:42 435.675
UWE-3 24 Aug 20:55:25 20:59:15 34° 277° (W) 21:03:14 435.000/436.395/437.385
Oscar 11 24 Aug 20:55:30 20:59:47 56° 280° (W) 21:04:09 145.826/435.025
FUNcube-1 24 Aug 20:58:03 21:02:11 57° 280° (W) 21:06:29 145.935
HUMSAT D 24 Aug 20:59:10 21:02:44 28° 109° (ESE) 21:06:25 437.325/437.525
DELFI C3 24 Aug 21:17:09 21:21:12 77° 280° (W) 21:25:19 145.870
ZACube-1 24 Aug 21:18:04 21:21:48 30° 276° (W) 21:25:39 437.345
UNISAT 6 24 Aug 21:21:56 21:24:53 16° 87° (E) 21:27:49 437.425
PCSat 24 Aug 21:23:43 21:29:09 66° 117° (ESE) 21:34:31 145.827
PRISM 24 Aug 21:35:22 21:39:00 30° 251° (WSW) 21:42:35 437.425
AIST 1 24 Aug 21:38:32 21:40:42 14° 266° (W) 21:42:51
AUBIESAT-1 24 Aug 21:41:01 21:43:48 24° 113° (ESE) 21:46:36 437.475
M-CUBED/EXP-1 PRIME 24 Aug 21:43:23 21:46:29 34° 111° (ESE) 21:49:31 437.505
VELOX 1 24 Aug 21:57:23 21:58:15 10° 116° (ESE) 21:59:07 145.980
ANTELSAT 24 Aug 21:57:47 22:02:16 40° 82° (E) 22:06:42 437.575/2403.000
Cosmos 2499 24 Aug 21:59:08 22:05:57 24° 110° (ESE) 22:12:41 435.465 / 435.565
CUBEBUG 1 24 Aug 22:06:26 22:09:12 17° 113° (ESE) 22:11:59 437.445
AIST 2 24 Aug 22:10:44 22:14:49 62° 296° (WNW) 22:18:51 435.215
ESTCUBE 1 24 Aug 22:19:45 22:23:58 38° 108° (ESE) 22:28:14 437.505/2401.250
CUSAT 1 24 Aug 22:20:26 22:27:31 36° 90° (E) 22:34:07 437.405
DX 1 24 Aug 22:24:35 22:27:03 15° 114° (ESE) 22:29:33 434.975-435.025
GONETS M04 24 Aug 22:24:54 22:33:08 43° 103° (ESE) 22:41:15
TIGRISAT 24 Aug 22:29:31 22:34:17 87° 81° (E) 22:39:01 435.000
HUMSAT D 24 Aug 22:35:13 22:38:19 20° 274° (W) 22:41:30 437.325/437.525
QB50P1 24 Aug 22:38:11 22:40:23 14° 87° (E) 22:42:34 145.935-145.965
SPROUT 24 Aug 22:40:14 22:42:44 15° 113° (ESE) 22:45:15 437.525
AISAT 24 Aug 22:42:21 22:46:26 37° 108° (ESE) 22:50:32 437.250
DANDE 24 Aug 22:44:16 22:50:40 26° 95° (E) 22:57:12 436.750
POPSAT HIP 1 24 Aug 22:47:14 22:50:08 17° 86° (E) 22:53:01 437.405
UNISAT 6 24 Aug 22:57:15 23:01:43 43° 253° (WSW) 23:06:12 437.425
50 SAT 24 Aug 23:04:50 23:08:31 65° 104° (ESE) 23:12:16 437.505
PCSat 24 Aug 23:09:16 23:11:53 14° 283° (WNW) 23:14:31 145.827
UKube-1 24 Aug 23:09:48 23:13:47 37° 108° (ESE) 23:17:50 .
QB50P2 24 Aug 23:15:45 23:19:52 42° 81° (E) 23:23:57 145.880/145.840
AUBIESAT-1 24 Aug 23:16:35 23:18:19 13° 280° (W) 23:20:02 437.475
DUCHIFAT 1 24 Aug 23:18:08 23:22:06 36° 82° (E) 23:26:04 145.980
POLYITAN 1 24 Aug 23:18:15 23:22:24 42° 81° (E) 23:26:30 437.675
VELOX 1 24 Aug 23:29:43 23:34:07 64° 281° (W) 23:38:34 145.980
NANOSAT C BR1 24 Aug 23:30:02 23:34:18 55° 80° (E) 23:38:30 145.865
SO-50 24 Aug 23:32:28 23:36:48 64° 63° (ENE) 23:41:15 436.795
ANTELSAT 24 Aug 23:35:25 23:38:37 18° 247° (WSW) 23:41:48 437.575/2403.000
JAS-2 24 Aug 23:38:30 23:43:58 32° 85° (E) 23:48:52 435.910
O/OREOS (USA 219) 24 Aug 23:39:44 23:44:02 40° 114° (ESE) 23:48:15 437.305
CUBEBUG 1 24 Aug 23:41:05 23:45:09 37° 278° (W) 23:49:17 437.445
Cosmos 2499 24 Aug 23:50:52 23:59:45 70° 272° (W) 00:08:27 435.465 / 435.565
ESTCUBE 1 24 Aug 23:57:52 00:00:52 17° 274° (W) 00:03:54 437.505/2401.250
DX 1 24 Aug 23:58:42 00:02:51 42° 279° (W) 00:07:03 434.975-435.025
CUSAT 1 25 Aug 00:01:47 00:09:21 44° 257° (WSW) 00:16:20 437.405
QB50P1 25 Aug 00:12:13 00:16:18 42° 253° (WSW) 00:20:22 145.935-145.965
SPROUT 25 Aug 00:14:19 00:18:18 39° 278° (W) 00:22:21 437.525
AISAT 25 Aug 00:20:10 00:22:59 17° 274° (W) 00:25:50 437.250
SWISSCUBE 25 Aug 00:22:23 00:23:11 10° 118° (ESE) 00:23:59 437.505
